RYR7 EKCH-LKPR

Flight info

Callsign RYR7
Flight time 0h 57m
Altitude 35000
Route SALLO M44 KOGIM DCT LUROS M725 HDO DCT GOLOP
Aircraft B38M/M-SDE1FGHILORVWXY/HB1

Departure

Time 2026-04-24 15:38
Airport Copenhagen Kastrup Airport (EKCH)

Arrival

Time 2026-04-24 16:35
Airport Václav Havel Airport Prague (LKPR)
Time Latitude Longitude Altitude Speed Heading
2026-04-24 15:10 55.62508 12.65469 19 ft 0 kts 23°
2026-04-24 15:14 55.62508 12.65470 20 ft 0 kts 24°
2026-04-24 15:14 55.62509 12.65471 21 ft 0 kts 24°
2026-04-24 15:15 55.62509 12.65470 22 ft 0 kts 25°
2026-04-24 15:24 55.62508 12.65470 19 ft 0 kts 30°
2026-04-24 15:26 55.62508 12.65469 19 ft 0 kts 23°
2026-04-24 15:27 55.62477 12.65446 19 ft 3 kts 23°
2026-04-24 15:27 55.62474 12.65444 19 ft 0 kts 23°
2026-04-24 15:28 55.62467 12.65437 21 ft 2 kts 51°
2026-04-24 15:29 55.62462 12.65415 24 ft 0 kts 92°
2026-04-24 15:30 55.62462 12.65417 24 ft 0 kts 92°
2026-04-24 15:31 55.62461 12.65458 23 ft 4 kts 92°
2026-04-24 15:32 55.62436 12.65412 22 ft 7 kts 269°
2026-04-24 15:33 55.62276 12.65215 21 ft 10 kts 221°
2026-04-24 15:33 55.62059 12.65010 21 ft 15 kts 212°
2026-04-24 15:34 55.61844 12.64762 21 ft 22 kts 213°
2026-04-24 15:35 55.61385 12.64232 21 ft 31 kts 212°
2026-04-24 15:35 55.60993 12.63784 19 ft 36 kts 213°
2026-04-24 15:35 55.60824 12.63587 20 ft 15 kts 211°
2026-04-24 15:36 55.60730 12.63483 21 ft 17 kts 214°
2026-04-24 15:36 55.60523 12.63218 19 ft 19 kts 187°
2026-04-24 15:36 55.60423 12.63347 20 ft 13 kts 130°
2026-04-24 15:37 55.60414 12.63468 20 ft 11 kts 45°
2026-04-24 15:37 55.60490 12.63583 20 ft 31 kts 41°
2026-04-24 15:37 55.60870 12.64172 21 ft 110 kts 41°
2026-04-24 15:37 55.61623 12.65311 20 ft 171 kts 32°
2026-04-24 15:38 55.62581 12.66759 462 ft 193 kts 36°
2026-04-24 15:38 55.63569 12.68281 1619 ft 184 kts 37°
2026-04-24 15:38 55.64558 12.69900 2407 ft 208 kts 43°
2026-04-24 15:38 55.65132 12.72490 3002 ft 252 kts 83°
2026-04-24 15:39 55.64631 12.75548 3973 ft 272 kts 121°
2026-04-24 15:39 55.63188 12.77825 4775 ft 291 kts 153°
2026-04-24 15:39 55.61288 12.79059 5865 ft 291 kts 169°
2026-04-24 15:39 55.59293 12.79350 6876 ft 292 kts 182°
2026-04-24 15:40 55.57233 12.79418 7835 ft 299 kts 181°
2026-04-24 15:40 55.55135 12.79533 8799 ft 303 kts 181°
2026-04-24 15:40 55.53001 12.79670 9749 ft 309 kts 181°
2026-04-24 15:40 55.50842 12.79820 10499 ft 320 kts 181°
2026-04-24 15:41 55.48547 12.79991 11017 ft 337 kts 181°
2026-04-24 15:41 55.46156 12.80172 11645 ft 349 kts 181°
2026-04-24 15:41 55.43710 12.80356 12504 ft 352 kts 181°
2026-04-24 15:41 55.41268 12.80538 13337 ft 357 kts 182°
2026-04-24 15:42 55.38756 12.80725 14116 ft 362 kts 182°
2026-04-24 15:42 55.36220 12.80934 14852 ft 366 kts 179°
2026-04-24 15:42 55.33768 12.82106 15599 ft 377 kts 155°
2026-04-24 15:42 55.31437 12.84310 16295 ft 381 kts 158°
2026-04-24 15:43 55.29019 12.86274 16957 ft 385 kts 158°
2026-04-24 15:43 55.26579 12.88269 17643 ft 389 kts 158°
2026-04-24 15:43 55.24101 12.90303 18307 ft 393 kts 158°
2026-04-24 15:43 55.21611 12.92350 18869 ft 397 kts 158°
2026-04-24 15:44 55.19127 12.94390 19420 ft 401 kts 158°
2026-04-24 15:44 55.16580 12.96481 19964 ft 405 kts 158°
2026-04-24 15:44 55.14003 12.98592 20504 ft 409 kts 158°
2026-04-24 15:44 55.11444 13.00686 21030 ft 412 kts 158°
2026-04-24 15:45 55.08830 13.02806 21557 ft 415 kts 160°
2026-04-24 15:45 55.06077 13.04237 22081 ft 410 kts 175°
2026-04-24 15:45 55.03231 13.05040 22580 ft 416 kts 174°
2026-04-24 15:45 55.00395 13.05980 23060 ft 420 kts 173°
2026-04-24 15:46 54.97510 13.06968 23577 ft 423 kts 173°
2026-04-24 15:46 54.94627 13.07974 23987 ft 427 kts 173°
2026-04-24 15:46 54.91703 13.09002 24451 ft 429 kts 173°
2026-04-24 15:46 54.88767 13.10035 24889 ft 431 kts 173°
2026-04-24 15:47 54.85818 13.11072 25323 ft 433 kts 173°
2026-04-24 15:47 54.82847 13.12116 25754 ft 435 kts 173°
2026-04-24 15:47 54.79890 13.13153 26142 ft 438 kts 173°
2026-04-24 15:47 54.76898 13.14200 26577 ft 439 kts 173°
2026-04-24 15:48 54.73875 13.15257 26993 ft 442 kts 173°
2026-04-24 15:48 54.70893 13.16297 27384 ft 444 kts 173°
2026-04-24 15:48 54.67840 13.17362 27775 ft 446 kts 173°
2026-04-24 15:48 54.64787 13.18425 28165 ft 448 kts 174°
2026-04-24 15:49 54.61700 13.19497 28545 ft 451 kts 174°
2026-04-24 15:49 54.58646 13.20556 28912 ft 453 kts 174°
2026-04-24 15:49 54.55537 13.21634 29274 ft 455 kts 174°
2026-04-24 15:49 54.52407 13.22716 29600 ft 457 kts 174°
2026-04-24 15:50 54.49315 13.23784 29971 ft 459 kts 174°
2026-04-24 15:50 54.46170 13.24869 30275 ft 462 kts 174°
2026-04-24 15:50 54.42992 13.25963 30572 ft 464 kts 174°
2026-04-24 15:50 54.39819 13.27053 30877 ft 465 kts 174°
2026-04-24 15:51 54.36669 13.28134 31163 ft 467 kts 174°
2026-04-24 15:51 54.33453 13.29237 31451 ft 469 kts 174°
2026-04-24 15:51 54.30238 13.30336 31738 ft 471 kts 174°
2026-04-24 15:51 54.27051 13.31425 31987 ft 473 kts 174°
2026-04-24 15:52 54.23809 13.32530 32315 ft 473 kts 174°
2026-04-24 15:52 54.20582 13.33629 32615 ft 475 kts 174°
2026-04-24 15:52 54.17328 13.34734 32872 ft 477 kts 174°
2026-04-24 15:52 54.14063 13.35842 33166 ft 478 kts 174°
2026-04-24 15:53 54.10824 13.36939 33497 ft 478 kts 174°
2026-04-24 15:53 54.07561 13.38043 33872 ft 477 kts 174°
2026-04-24 15:53 54.04300 13.39143 34200 ft 476 kts 174°
2026-04-24 15:53 54.01050 13.40239 34517 ft 475 kts 174°
2026-04-24 15:54 53.97809 13.41330 34821 ft 474 kts 174°
2026-04-24 15:54 53.94594 13.42411 35051 ft 475 kts 174°
2026-04-24 15:54 53.88028 13.44613 35040 ft 485 kts 174°
2026-04-24 15:55 53.81406 13.46827 35038 ft 487 kts 174°
2026-04-24 15:55 53.74732 13.49050 35041 ft 487 kts 174°
2026-04-24 15:56 53.68120 13.51245 35040 ft 486 kts 174°
2026-04-24 15:56 53.61500 13.53436 35044 ft 486 kts 174°
2026-04-24 15:57 53.54856 13.55629 35044 ft 486 kts 174°
2026-04-24 15:57 53.48201 13.57817 35040 ft 489 kts 174°
2026-04-24 15:58 53.41531 13.60004 35045 ft 490 kts 174°
2026-04-24 15:58 53.34823 13.62196 35047 ft 490 kts 174°
2026-04-24 15:59 53.28114 13.64381 35048 ft 490 kts 174°
2026-04-24 15:59 53.21451 13.66545 35050 ft 490 kts 174°
2026-04-24 16:00 53.14749 13.68714 35051 ft 490 kts 174°
2026-04-24 16:00 53.08071 13.70869 35056 ft 490 kts 174°
2026-04-24 16:01 53.01364 13.73026 35055 ft 489 kts 174°
2026-04-24 16:01 52.94705 13.75161 35064 ft 489 kts 174°
2026-04-24 16:02 52.88006 13.77302 35060 ft 489 kts 174°
2026-04-24 16:02 52.81312 13.79435 35061 ft 492 kts 174°
2026-04-24 16:03 52.74614 13.81562 35057 ft 492 kts 174°
2026-04-24 16:03 52.67876 13.83695 35062 ft 492 kts 174°
2026-04-24 16:04 52.61176 13.85810 35063 ft 492 kts 174°
2026-04-24 16:04 52.54432 13.87932 35067 ft 492 kts 174°
2026-04-24 16:05 52.44359 13.91089 35071 ft 492 kts 174°
2026-04-24 16:06 52.34293 13.94229 35075 ft 491 kts 174°
2026-04-24 16:07 52.24240 13.97350 35071 ft 493 kts 174°
2026-04-24 16:07 52.14112 14.00481 35077 ft 494 kts 174°
2026-04-24 16:08 52.03993 14.03593 35083 ft 493 kts 174°
2026-04-24 16:09 51.93841 14.06703 35086 ft 493 kts 174°
2026-04-24 16:09 51.87125 14.08751 35087 ft 493 kts 173°
2026-04-24 16:11 51.70273 14.13865 35103 ft 493 kts 174°
2026-04-24 16:11 51.63524 14.15902 35095 ft 492 kts 173°
2026-04-24 16:12 51.53468 14.18926 35103 ft 491 kts 173°
2026-04-24 16:13 51.43400 14.21939 35111 ft 491 kts 173°
2026-04-24 16:14 51.29974 14.25937 35120 ft 490 kts 173°
2026-04-24 16:14 51.19945 14.28909 35117 ft 490 kts 173°
2026-04-24 16:15 51.09891 14.31874 34864 ft 487 kts 173°
2026-04-24 16:16 51.03142 14.33858 33057 ft 494 kts 173°
2026-04-24 16:16 51.00900 14.34515 32322 ft 498 kts 172°
2026-04-24 16:17 50.90666 14.37767 29406 ft 507 kts 168°
2026-04-24 16:17 50.83821 14.40326 27291 ft 509 kts 168°
2026-04-24 16:18 50.76893 14.42865 25215 ft 512 kts 168°
2026-04-24 16:18 50.70071 14.45356 23906 ft 499 kts 168°
2026-04-24 16:18 50.66694 14.46585 23241 ft 492 kts 169°
2026-04-24 16:19 50.60045 14.46888 22005 ft 471 kts 191°
2026-04-24 16:19 50.56870 14.45956 20898 ft 459 kts 199°
2026-04-24 16:20 50.51269 14.41659 18767 ft 441 kts 214°
2026-04-24 16:20 50.45972 14.36821 16064 ft 440 kts 205°
2026-04-24 16:20 50.43047 14.35413 14960 ft 437 kts 192°
2026-04-24 16:21 50.37057 14.35298 12845 ft 428 kts 176°
2026-04-24 16:21 50.34107 14.35704 12248 ft 422 kts 175°
2026-04-24 16:21 50.31215 14.36194 12017 ft 409 kts 174°
2026-04-24 16:22 50.28437 14.36702 11947 ft 394 kts 174°
2026-04-24 16:22 50.23153 14.37725 11538 ft 375 kts 174°
2026-04-24 16:22 50.20592 14.38232 11349 ft 366 kts 174°
2026-04-24 16:23 50.18088 14.38729 11173 ft 356 kts 174°
2026-04-24 16:23 50.15696 14.39284 10984 ft 348 kts 166°
2026-04-24 16:23 50.13541 14.40901 10760 ft 341 kts 140°
2026-04-24 16:24 50.10634 14.46396 10490 ft 319 kts 125°
2026-04-24 16:24 50.09323 14.49090 10347 ft 311 kts 125°
2026-04-24 16:24 50.08030 14.51747 10231 ft 302 kts 125°
2026-04-24 16:24 50.06771 14.54334 10120 ft 293 kts 125°
2026-04-24 16:25 50.05568 14.56788 10024 ft 283 kts 126°
2026-04-24 16:25 50.04355 14.59154 9860 ft 276 kts 127°
2026-04-24 16:25 50.03149 14.61488 9555 ft 275 kts 127°
2026-04-24 16:26 50.00744 14.66179 8773 ft 282 kts 127°
2026-04-24 16:26 49.99510 14.68605 8324 ft 287 kts 127°
2026-04-24 16:26 49.96931 14.73475 7382 ft 299 kts 139°
2026-04-24 16:27 49.95165 14.75216 6920 ft 302 kts 160°
2026-04-24 16:27 49.93131 14.75953 6558 ft 299 kts 181°
2026-04-24 16:27 49.91121 14.75617 6226 ft 290 kts 200°
2026-04-24 16:27 49.89344 14.74278 5932 ft 281 kts 220°
2026-04-24 16:28 49.88031 14.72114 5622 ft 272 kts 243°
2026-04-24 16:28 49.87435 14.69396 5344 ft 263 kts 267°
2026-04-24 16:28 49.88590 14.64366 4816 ft 253 kts 314°
2026-04-24 16:29 49.89956 14.62664 4563 ft 250 kts 323°
2026-04-24 16:29 49.91376 14.61129 4359 ft 245 kts 324°
2026-04-24 16:29 49.94176 14.58433 4131 ft 230 kts 325°
2026-04-24 16:30 49.96133 14.54824 4056 ft 206 kts 307°
2026-04-24 16:30 49.96966 14.53077 4020 ft 194 kts 307°
2026-04-24 16:30 49.97744 14.51462 3989 ft 186 kts 307°
2026-04-24 16:31 49.98507 14.49883 4123 ft 181 kts 307°
2026-04-24 16:31 49.99269 14.48311 4086 ft 181 kts 308°
2026-04-24 16:31 50.00027 14.46751 4028 ft 179 kts 308°
2026-04-24 16:31 50.00780 14.45200 3878 ft 180 kts 308°
2026-04-24 16:32 50.01535 14.43643 3657 ft 179 kts 307°
2026-04-24 16:32 50.02272 14.42126 3453 ft 177 kts 307°
2026-04-24 16:32 50.03011 14.40607 3238 ft 176 kts 308°
2026-04-24 16:32 50.03745 14.39097 3024 ft 175 kts 308°
2026-04-24 16:33 50.04487 14.37569 2757 ft 176 kts 308°
2026-04-24 16:33 50.05192 14.36114 2556 ft 159 kts 308°
2026-04-24 16:33 50.05837 14.34789 2342 ft 153 kts 308°
2026-04-24 16:33 50.06472 14.33477 2147 ft 150 kts 309°
2026-04-24 16:34 50.07088 14.32207 1919 ft 143 kts 310°
2026-04-24 16:34 50.07685 14.30973 1726 ft 143 kts 309°
2026-04-24 16:34 50.08287 14.29711 1505 ft 146 kts 309°
2026-04-24 16:34 50.08900 14.28461 1332 ft 143 kts 308°
2026-04-24 16:35 50.09482 14.27262 1217 ft 126 kts 309°
2026-04-24 16:35 50.09860 14.26488 1213 ft 61 kts 307°
2026-04-24 16:35 50.10073 14.26050 1195 ft 48 kts 307°
2026-04-24 16:35 50.10237 14.25736 1191 ft 27 kts 322°
2026-04-24 16:36 50.10386 14.25657 1188 ft 11 kts 356°
2026-04-24 16:36 50.10463 14.25669 1188 ft 12 kts 17°
2026-04-24 16:36 50.10506 14.25690 1187 ft 7 kts 19°
2026-04-24 16:36 50.10560 14.25740 1185 ft 7 kts 32°
2026-04-24 16:37 50.10599 14.25775 1184 ft 7 kts 46°
2026-04-24 16:37 50.10656 14.25844 1177 ft 14 kts 33°
2026-04-24 16:37 50.10703 14.25893 1178 ft 1 kts 34°
2026-04-24 16:37 50.10714 14.25905 1179 ft 3 kts 34°
2026-04-24 16:38 50.10739 14.25931 1178 ft 5 kts 34°
2026-04-24 16:38 50.10746 14.25967 1179 ft 2 kts 107°
2026-04-24 16:38 50.10739 14.25985 1177 ft 0 kts 125°
2026-04-24 16:38 50.10734 14.25996 1180 ft 2 kts 125°
2026-04-24 16:39 50.10720 14.26026 1177 ft 1 kts 124°
2026-04-24 16:39 50.10717 14.26035 1179 ft 2 kts 124°
2026-04-24 16:39 50.10715 14.26039 1175 ft 0 kts 124°